Regional Weather Roundup
Issued by NWS

Home | Current Version | Previous Version | Graphics & Text | Print | Product List | Glossary On
Versions: 1 2 3 4 5 6 7 8 9 10 11 12 13 14 15 16 17 18 19 20 21 22 23 24 25 26 27 28 29 30 31 32 33 34 35 36 37 38 39 40 41 42 43 44 45 46 47 48 49 50
000
ASUS45 KBOU 281407
RWRCO

WEATHER ROUNDUP FOR COLORADO
NATIONAL WEATHER SERVICE DENVER/BOULDER CO
800 AM MDT TUE APR 28 2015

NOTE: "FAIR" INDICATES FEW OR NO CLOUDS BELOW 12000 FEET WITH NO
SIGNIFICANT WEATHER AND/OR OBSTRUCTIONS TO VISIBILITY.

COZ001>005-013-030-031-281500-
...NORTHWEST COLORADO...

CITY           SKY/WX    TMP DP  RH WIND       PRES   REMARKS
CRAIG          CLOUDY    39  36  89 CALM      30.34S
HAYDEN         CLOUDY    37  34  87 W3        30.33S
MEEKER         CLOUDY    35  34  96 CALM      30.34R FOG
MOUNT WERNER   NOT AVBL
STEAMBOAT SPGS CLOUDY    36  35  99 CALM      30.34R VSB 1/2
WALDEN         CLOUDY    34  30  86 CALM      30.35S
$$

COZ006>008-011-281500-
...WEST CENTRAL VALLEYS...

CITY           SKY/WX    TMP DP  RH WIND       PRES   REMARKS
GRAND JUNCTION SUNNY     50  40  68 S5        30.25R
MONTROSE       SUNNY     49  29  46 E13       30.30R
EAGLE          MOSUNNY   39  34  81 CALM      30.35R
RIFLE          SUNNY     43  37  79 CALM      30.30R
DELTA          SUNNY     51  40  68 MISG      30.28S
NUCLA          SUNNY     45  37  76 CALM      30.31S
$$

COZ017>023-064>068-281500-
...SOUTHWEST COLORADO...

CITY           SKY/WX    TMP DP  RH WIND       PRES   REMARKS
DURANGO        MOSUNNY   38  36  92 E5        30.32R
CORTEZ         SUNNY     45  38  76 CALM      30.29R
PAGOSA SPRINGS MOSUNNY   38  27  64 CALM      30.34R
TELLURIDE      PTSUNNY   37  32  84 CALM      30.36R
WOLF CREEK PAS NOT AVBL
$$

COZ009-010-012-014-032>034-037-058>063-281500-
...CENTRAL COLORADO...

CITY           SKY/WX    TMP DP  RH WIND       PRES   REMARKS
ASPEN          SUNNY     37  24  59 NE3       30.32R
BUENA VISTA    MOSUNNY   37  30  77 E3        30.38S
COPPER MTN     MOSUNNY   32   9  37 CALM      30.41R
BERTHOUD PASS  FAIR      19  12  73 NW3       30.42R
COTTONWOOD PAS MOSUNNY   32  21  64 CALM      30.39R
GUNNISON       SUNNY     30  25  80 CALM      30.39S
KREMMLING      SUNNY     34  30  86 CALM      30.37S
LEADVILLE      CLOUDY    26  20  77 CALM      30.38S
MONARCH PASS     N/A     21  19  93 MISG      30.50R
SALIDA         MOSUNNY   38  32  78 CALM      30.45S
SUNLIGHT       FOG       32  32 100 CALM      30.42S VSB 3/4
WILKERSON PASS MOSUNNY   23  21  93 MISG      30.40S
$$

COZ069>075-281500-
...SAN LUIS VALLEY/SANGRE DE CRISTO MOUNTAINS...

CITY           SKY/WX    TMP DP  RH WIND       PRES   REMARKS
ALAMOSA        SUNNY     36  28  73 SW5       30.36R
LA VETA PASS   CLOUDY    28  27  93 MISG      30.37S FOG
SAGUACHE       SUNNY     34  27  75 NW9       30.37R WCI  26
$$

COZ035-036-038>040-281500-
...NORTHERN COLORADO FRONT RANGE...

CITY           SKY/WX    TMP DP  RH WIND       PRES   REMARKS
DENVER INTL AP MOSUNNY   44  41  89 SE6       30.34S FOG
DMNS CITY PARK   N/A     45  39  78 S2        30.34S
AURORA         MOSUNNY   43  41  93 SE3       30.35S
FRONT RANGE AP PTSUNNY   46  43  87 E3        30.35S
ERIE MUNI ARPT PTSUNNY   42  41  95 CALM      30.35S
BOULDER MUN AP MOSUNNY   45  41  87 CALM      30.34S
CENTENNIAL     MOSUNNY   42  38  85 S7        30.35R
BROOMFIELD     MOSUNNY   43  39  87 CALM      30.35S VSB 1
FORT COLLINS   SUNNY     45  39  81 CALM      30.36S
LONGMONT       MOSUNNY   50  41  71 CALM      30.36S
$$

COZ041-046-047-076>085-087-088-281500-
...PIKES PEAK/PALMER DIVIDE AND SOUTHERN FOOTHILLS...

CITY           SKY/WX    TMP DP  RH WIND       PRES   REMARKS
COLO. SPRINGS  MOSUNNY   45  31  58 N5        30.36R
A. F. ACADEMY  MOSUNNY   38  32  78 N3        30.35S
ELLICOTT       NOT AVBL
FALCON         SUNNY     42  29  60 N5        30.37S
FORT CARSON    MOSUNNY   43  33  66 N6        30.34S
LIMON          CLOUDY    43  37  79 N6        30.35R
MONUMENT HILL  SUNNY     36  32  87 CALM      30.35S
TRINIDAD       SUNNY     42  35  76 NW9       30.34S
$$

COZ042>045-048>051-090-091-281500-
...NORTHEAST COLORADO...

CITY           SKY/WX    TMP DP  RH WIND       PRES   REMARKS
GREELEY ARPT   SUNNY     45  37  76 CALM      30.36S
AKRON          CLOUDY    44  41  89 NE7       30.35S
BURLINGTON     MOSUNNY   44  39  82 N15       30.33R
WRAY           CLOUDY    46  41  84 N13       30.35R
STERLING       CLOUDY    45  43  93 NE6       30.35S
HOLYOKE        CLOUDY    45  41  87 N8        30.36R
FORT MORGAN    CLOUDY    45  41  84 CALM      30.36S
$$

COZ086-089-092>099-281500-
...SOUTHEAST COLORADO...

CITY           SKY/WX    TMP DP  RH WIND       PRES   REMARKS
PUEBLO         SUNNY     46  37  71 W9        30.34S
LA JUNTA       CLOUDY    50  41  71 N15       30.32R
LAMAR          MOSUNNY   50  40  68 NE12      30.29S
SPRINGFIELD      N/A     48  40  73 N18       30.29R
$$


USA.gov is the U.S. government's official web portal to all federal, state and local government web resources and services.